DW2113 Weather Reports


time (UTC)temp
C
wind
direction
speed
KPH
gust
KPH
rain 1hr
cm
rain 24hr
cm
rain mn
cm
humidity
%
barometer
mb
20260506004357 10 360 17.7 33.8 0.00 0.00 0.00 75
20260506003855 10 360 25.7 33.8 0.00 0.00 0.00 75
20260506003331 10 360 19.3 35.4 0.00 0.00 0.00 75
20260506002829 10 360 22.5 35.4 0.00 0.00 0.00 75
20260506002407 10 360 24.1 33.8 0.00 0.00 0.00 75
20260506001842 10 360 22.5 32.2 0.00 0.00 0.00 75
20260506001359 10 360 24.1 30.6 0.00 0.00 0.00 75
20260506000835 10 360 19.3 30.6 0.00 0.00 0.00 75
20260506000332 10 360 19.3 32.2 0.00 0.00 0.00 75
20260505235850 11 360 17.7 27.4 0.00 0.00 0.00 75
20260505235346 11 360 17.7 29.0 0.00 0.00 0.00 75
20260505234844 11 360 20.9 29.0 0.00 0.00 0.00 75
20260505234341 11 360 17.7 33.8 0.00 0.00 0.00 75
20260505233838 11 360 22.5 33.8 0.00 0.00 0.00 75
20260505233355 11 360 22.5 33.8 0.00 0.00 0.00 75
20260505232833 11 360 22.5 33.8 0.00 0.00 0.00 75
20260505232350 11 360 19.3 35.4 0.00 0.00 0.00 74
20260505231831 11 360 19.3 27.4 0.00 0.00 0.00 74
20260505231328 11 360 20.9 29.0 0.00 0.00 0.00 74
20260505230846 11 360 19.3 33.8 0.00 0.00 0.00 74
20260505230342 11 360 24.1 35.4 0.00 0.00 0.00 74
20260505225840 11 360 22.5 35.4 0.00 0.00 0.00 74
20260505225336 11 360 22.5 32.2 0.00 0.00 0.00 74
20260505224834 11 360 17.7 32.2 0.00 0.00 0.00 74
20260505224332 11 360 19.3 29.0 0.00 0.00 0.00 74
20260505223829 11 360 19.3 30.6 0.00 0.00 0.00 74
20260505223346 11 360 17.7 30.6 0.00 0.00 0.00 74
20260505222843 11 360 22.5 33.8 0.00 0.00 0.00 74
20260505222340 11 360 17.7 37.0 0.00 0.00 0.00 73
20260505221837 11 360 25.7 40.2 0.00 0.00 0.00 73
20260505221356 12 360 24.1 38.6 0.00 0.00 0.00 74
20260505220831 11 360 27.4 38.6 0.00 0.00 0.00 73
20260505220349 11 360 22.5 35.4 0.00 0.00 0.00 74
20260505215907 11 360 20.9 33.8 0.00 0.00 0.00 74
20260505215342 11 360 20.9 40.2 0.00 0.00 0.00 74
20260505214844 11 360 25.7 40.2 0.00 0.00 0.00 74
20260505214401 11 360 22.5 40.2 0.00 0.00 0.00 74
20260505213858 11 360 22.5 37.0 0.00 0.00 0.00 74
20260505213334 11 360 24.1 43.5 0.00 0.00 0.00 74
20260505212832 11 360 24.1 38.6 0.00 0.00 0.00 74
20260505212329 11 360 25.7 37.0 0.00 0.00 0.00 74
20260505211847 11 360 22.5 38.6 0.00 0.00 0.00 74
20260505211344 11 360 24.1 41.8 0.00 0.00 0.00 74
20260505210841 11 360 27.4 41.8 0.00 0.00 0.00 75
20260505210339 11 360 22.5 37.0 0.00 0.00 0.00 75
20260505205839 11 360 20.9 38.6 0.00 0.00 0.00 75
20260505205335 11 360 25.7 38.6 0.00 0.00 0.00 75
20260505204833 11 360 25.7 37.0 0.00 0.00 0.00 75
20260505204330 11 360 22.5 40.2 0.00 0.00 0.00 75
20260505203829 11 360 30.6 40.2 0.00 0.00 0.00 75
20260505203346 11 360 20.9 35.4 0.00 0.00 0.00 75
20260505202844 11 360 20.9 40.2 0.00 0.00 0.00 75
20260505202345 11 360 30.6 40.2 0.00 0.00 0.00 75
20260505201842 11 360 20.9 38.6 0.00 0.00 0.00 75
20260505201338 11 360 24.1 38.6 0.00 0.00 0.00 75
20260505200837 11 360 24.1 37.0 0.00 0.00 0.00 75
20260505200335 11 360 27.4 35.4 0.00 0.00 0.00 75
20260505195853 11 360 19.3 27.4 0.00 0.00 0.00 75
20260505195329 11 360 17.7 37.0 0.00 0.00 0.00 75
20260505194847 11 360 19.3 37.0 0.00 0.00 0.00 75
20260505194344 12 360 22.5 38.6 0.00 0.00 0.00 75
20260505193841 11 360 25.7 38.6 0.00 0.00 0.00 75
20260505193339 11 360 27.4 46.7 0.00 0.00 0.00 75
20260505192837 11 360 30.6 48.3 0.00 0.00 0.00 75
20260505192333 11 360 30.6 48.3 0.00 0.00 0.00 75
20260505191830 12 360 32.2 46.7 0.00 0.00 0.00 75
20260505191326 12 360 27.4 43.5 0.00 0.00 0.00 75
20260505190844 12 360 29.0 43.5 0.00 0.00 0.00 75
20260505190345 12 360 24.1 38.6 0.00 0.00 0.00 75
20260505185904 12 360 22.5 37.0 0.00 0.00 0.00 75
20260505185340 12 360 27.4 45.1 0.00 0.00 0.00 75
20260505184838 12 360 29.0 45.1 0.00 0.00 0.00 75
20260505184335 12 360 25.7 41.8 0.00 0.00 0.00 75
20260505183832 12 360 27.4 43.5 0.00 0.00 0.00 75
20260505183328 12 360 30.6 43.5 0.00 0.00 0.00 75
20260505182847 12 360 27.4 43.5 0.00 0.00 0.00 75
20260505182344 12 360 25.7 43.5 0.00 0.00 0.00 75
20260505181841 12 360 29.0 41.8 0.00 0.00 0.00 75
20260505181338 12 360 27.4 41.8 0.00 0.00 0.00 75
20260505180837 12 360 25.7 38.6 0.00 0.00 0.00 75
20260505180354 12 360 29.0 38.6 0.00 0.00 0.00 75
20260505175852 12 360 22.5 45.1 0.00 0.00 0.00 75
20260505175408 12 360 29.0 45.1 0.00 0.00 0.00 74
20260505174845 13 360 25.7 38.6 0.00 0.00 0.00 74
20260505174402 13 360 24.1 40.2 0.00 0.00 0.00 74
20260505173838 13 360 27.4 40.2 0.00 0.00 0.00 74
20260505173335 13 360 24.1 40.2 0.00 0.00 0.00 74
20260505172832 13 360 25.7 45.1 0.00 0.00 0.00 73
20260505172332 13 360 29.0 45.1 0.00 0.00 0.00 73
20260505171830 13 360 27.4 40.2 0.00 0.00 0.00 73
20260505171326 14 360 29.0 40.2 0.00 0.00 0.00 73
20260505170845 14 360 22.5 40.2 0.00 0.00 0.00 73
20260505170342 14 350 27.4 41.8 0.00 0.00 0.00 73
20260505165859 14 21 30.6 41.8 0.00 0.00 0.00 73
20260505165335 14 355 27.4 40.2 0.00 0.00 0.00 72
20260505164831 15 13 27.4 40.2 0.00 0.00 0.00 73
20260505164329 15 360 27.4 40.2 0.00 0.00 0.00 73
20260505163846 15 19 27.4 38.6 0.00 0.00 0.00 74
20260505163344 15 18 27.4 43.5 0.00 0.00 0.00 73
20260505162902 15 23 29.0 43.5 0.00 0.00 0.00 73
20260505162344 15 360 30.6 41.8 0.00 0.00 0.00 73
20260505161841 15 360 30.6 43.5 0.00 0.00 0.00 73
20260505161338 15 11 27.4 43.5 0.00 0.00 0.00 74
20260505160836 15 30 29.0 45.1 0.00 0.00 0.00 74
20260505160333 15 31 30.6 45.1 0.00 0.00 0.00 73
20260505152840 15 26 24.1 46.7 0.00 0.00 0.00 74
20260505152356 15 360 24.1 46.7 0.00 0.00 0.00 74
20260505151833 15 19 25.7 51.5 0.00 0.00 0.00 74
20260505151329 15 360 30.6 51.5 0.00 0.00 0.00 74
20260505150907 15 360 25.7 45.1 0.00 0.00 0.00 74
20260505150403 15 360 30.6 45.1 0.00 0.00 0.00 74
20260505140348 18 355 22.5 37.0 0.00 0.00 0.00 67
20260505124851 18 360 6.4 12.9 0.00 0.00 0.00 73
20260505124347 18 360 4.8 12.9 0.00 0.00 0.00 73
20260505123844 18 360 4.8 11.3 0.00 0.00 0.00 72
20260505123341 18 360 3.2 11.3 0.00 0.00 0.00 71
20260505122859 18 360 1.6 6.4 0.00 0.00 0.00 71
20260505122335 18 360 3.2 6.4 0.00 0.00 0.00 71
20260505121835 18 360 3.2 6.4 0.00 0.00 0.00 71
20260505121333 18 360 1.6 8.0 0.00 0.00 0.00 71
20260505120831 18 360 3.2 8.0 0.00 0.00 0.00 71
20260505120409 18 360 4.8 9.7 0.00 0.00 0.00 71
20260505115847 18 360 3.2 8.0 0.00 0.00 0.00 70
20260505115403 18 360 3.2 4.8 0.00 0.00 0.00 70
20260505114839 18 360 3.2 9.7 0.00 0.00 0.00 70
20260505114337 18 360 4.8 9.7 0.00 0.00 0.00 70
20260505113834 19 360 3.2 8.0 0.00 0.00 0.00 70
20260505113331 19 360 4.8 8.0 0.00 0.00 0.00 70
20260505112829 19 360 3.2 6.4 0.00 0.00 0.00 69
20260505112327 20 360 3.2 11.3 0.00 0.00 0.00 69
20260505111905 20 360 6.4 11.3 0.00 0.00 0.00 70
20260505111341 19 360 3.2 6.4 0.00 0.00 0.00 70
20260505110839 19 360 0.0 6.4 0.00 0.00 0.00 71
20260505110336 19 360 1.6 4.8 0.00 0.00 0.00 71
20260505101836 20 360 6.4 9.7 0.00 0.00 0.00 73
20260505101332 20 360 4.8 11.3 0.00 0.00 0.00 73
20260505100829 20 360 6.4 12.9 0.00 0.00 0.00 73
20260505100347 20 360 8.0 12.9 0.00 0.00 0.00 73
20260505095845 20 360 4.8 11.3 0.00 0.00 0.00 73
20260505095402 20 360 6.4 11.3 0.00 0.00 0.00 74
20260505094843 20 360 3.2 8.0 0.00 0.00 0.00 74
20260505094340 20 360 4.8 9.7 0.00 0.00 0.00 74
20260505093838 20 360 4.8 9.7 0.00 0.00 0.00 74
20260505093356 20 360 3.2 8.0 0.00 0.00 0.00 74
20260505092832 20 360 4.8 9.7 0.00 0.00 0.00 73
20260505092332 20 360 4.8 11.3 0.00 0.00 0.00 73
20260505091830 20 360 4.8 12.9 0.00 0.00 0.00 73
20260505091327 20 360 8.0 12.9 0.00 0.00 0.00 74
20260505090904 20 360 6.4 12.9 0.00 0.00 0.00 73
20260505090340 20 360 6.4 12.9 0.00 0.00 0.00 73
20260505085838 20 360 6.4 12.9 0.00 0.00 0.00 73
20260505085334 20 360 6.4 12.9 0.00 0.00 0.00 73
20260505084831 20 360 4.8 11.3 0.00 0.00 0.00 73
20260505084350 20 360 4.8 12.9 0.00 0.00 0.00 73
20260505083847 20 360 4.8 12.9 0.00 0.00 0.00 73
20260505083346 20 360 6.4 12.9 0.00 0.00 0.00 73
20260505082843 20 360 6.4 11.3 0.00 0.00 0.00 73
20260505082359 21 360 4.8 11.3 0.00 0.00 0.00 73
20260505081857 21 360 6.4 11.3 0.00 0.00 0.00 73
20260505081333 21 360 6.4 11.3 0.00 0.00 0.00 73
20260505080832 21 360 4.8 12.9 0.00 0.00 0.00 73
20260505080349 21 360 6.4 12.9 0.00 0.00 0.00 73
20260505075846 21 360 6.4 19.3 0.00 0.00 0.00 73
20260505075343 21 360 8.0 19.3 0.00 0.00 0.00 73
20260505074840 21 360 6.4 14.5 0.00 0.00 0.00 73
20260505074341 21 360 8.0 16.1 0.00 0.00 0.00 73
20260505073839 21 360 9.7 16.1 0.00 0.00 0.00 73
20260505073336 21 360 8.0 20.9 0.00 0.00 0.00 73
20260505072834 21 360 8.0 16.1 0.00 0.00 0.00 73
20260505072330 21 360 8.0 14.5 0.00 0.00 0.00 73
20260505071827 21 360 8.0 14.5 0.00 0.00 0.00 73
20260505071345 21 360 8.0 14.5 0.00 0.00 0.00 73
20260505070842 21 360 8.0 17.7 0.00 0.00 0.00 73
20260505070340 21 360 8.0 14.5 0.00 0.00 0.00 73
20260505065838 21 360 8.0 16.1 0.00 0.00 0.00 73
20260505065334 21 360 8.0 16.1 0.00 0.00 0.00 73
20260505064830 21 360 8.0 16.1 0.00 0.00 0.00 73
20260505064348 21 360 8.0 16.1 0.00 0.00 0.00 73
20260505063846 21 360 6.4 16.1 0.00 0.00 0.00 73
20260505063343 21 360 8.0 19.3 0.00 0.00 0.00 73
20260505062846 21 360 8.0 19.3 0.00 0.00 0.00 73
20260505062342 22 360 9.7 19.3 0.00 0.00 0.00 73
20260505061840 22 360 9.7 19.3 0.00 0.00 0.00 73
20260505061338 22 360 9.7 20.9 0.00 0.00 0.00 73
20260505060834 22 360 11.3 20.9 0.00 0.00 0.00 73
20260505060354 22 360 11.3 19.3 0.00 0.00 0.00 73
20260505055851 22 360 11.3 20.9 0.00 0.00 0.00 73
20260505055347 22 360 9.7 20.9 0.00 0.00 0.00 72
20260505054844 22 360 11.3 20.9 0.00 0.00 0.00 72
20260505054402 22 360 11.3 20.9 0.00 0.00 0.00 72
20260505053838 22 360 8.0 20.9 0.00 0.00 0.00 72
20260505053335 22 360 9.7 17.7 0.00 0.00 0.00 72
20260505052834 22 360 9.7 22.5 0.00 0.00 0.00 72
20260505052331 22 360 11.3 22.5 0.00 0.00 0.00 72
20260505051829 22 360 11.3 19.3 0.00 0.00 0.00 72
20260505051345 22 360 11.3 19.3 0.00 0.00 0.00 72
20260505050903 22 360 9.7 22.5 0.00 0.00 0.00 72
20260505050330 22 360 11.3 20.9 0.00 0.00 0.00 72
20260505041345 23 360 12.9 22.5 0.00 0.00 0.00 70
20260505040843 23 360 9.7 25.7 0.00 0.00 0.00 70
20260505040340 23 360 12.9 25.7 0.00 0.00 0.00 69
20260505035838 23 360 9.7 20.9 0.00 0.00 0.00 69
20260505035334 23 360 9.7 22.5 0.00 0.00 0.00 68
20260505034832 23 360 12.9 22.5 0.00 0.00 0.00 68
20260505034329 23 360 12.9 22.5 0.00 0.00 0.00 68
20260505033847 23 360 11.3 22.5 0.00 0.00 0.00 68
20260505033345 23 360 9.7 22.5 0.00 0.00 0.00 68
20260505032903 23 360 9.7 29.0 0.00 0.00 0.00 67
20260505032338 24 360 14.5 29.0 0.00 0.00 0.00 67
20260505031856 24 360 11.3 20.9 0.00 0.00 0.00 67
20260505031332 24 360 11.3 30.6 0.00 0.00 0.00 66
20260505030834 24 360 11.3 30.6 0.00 0.00 0.00 66
20260505030332 24 360 14.5 29.0 0.00 0.00 0.00 66
20260505025849 24 360 12.9 22.5 0.00 0.00 0.00 66
20260505025346 25 360 11.3 27.4 0.00 0.00 0.00 65
20260505024843 25 360 12.9 27.4 0.00 0.00 0.00 65
20260505024340 25 360 9.7 27.4 0.00 0.00 0.00 65
20260505023837 25 360 9.7 27.4 0.00 0.00 0.00 65
20260505023334 25 360 12.9 24.1 0.00 0.00 0.00 64
20260505022832 25 360 11.3 24.1 0.00 0.00 0.00 63
20260505022349 25 360 12.9 29.0 0.00 0.00 0.00 63
20260505021844 25 360 12.9 29.0 0.00 0.00 0.00 63
20260505021342 25 360 12.9 25.7 0.00 0.00 0.00 62
20260505020859 25 360 11.3 25.7 0.00 0.00 0.00 62
20260505020336 25 360 11.3 24.1 0.00 0.00 0.00 61
20260505015835 25 360 14.5 24.1 0.00 0.00 0.00 61
20260505015332 25 360 12.9 22.5 0.00 0.00 0.00 61
20260505014909 25 360 12.9 22.5 0.00 0.00 0.00 61
20260505014345 26 360 12.9 32.2 0.00 0.00 0.00 61
20260505013842 26 360 14.5 32.2 0.00 0.00 0.00 60
20260505013344 26 360 12.9 27.4 0.00 0.00 0.00 59
20260505012901 26 360 12.9 29.0 0.00 0.00 0.00 60
20260505012337 26 360 12.9 27.4 0.00 0.00 0.00 59
20260505011834 26 360 14.5 30.6 0.00 0.00 0.00 58
20260505011333 26 360 14.5 49.9 0.00 0.00 0.00 57
20260505010831 26 360 20.9 49.9 0.00 0.00 0.00 55
20260505010348 27 360 20.9 49.9 0.00 0.00 0.00 52
20260505005847 27 360 14.5 35.4 0.00 0.00 0.00 55
20260505005343 27 360 19.3 35.4 0.00 0.00 0.00 55
20260505004840 27 360 14.5 29.0 0.00 0.00 0.00 55